Location: Tauranga
(37.6860°S, 176.1670°E)
Time: 13:44:36
(UTC+12:00)

Daily predictions for brighter satellites

Satellite Brightness Start Highest point End
(mag) Time Altitude Azimuth Time Altitude Azimuth Time Altitude Azimuth
Cosmos 1633 3.8 17:41:25 10° NE 17:44:11 21° E 17:47:00 10° SE
SL-16 R/B 3.4 17:40:09 10° NNE 17:44:27 23° E 17:48:46 10° SE
USA 234 3.4 17:38:35 10° SE 17:45:11 69° NE 17:51:43 10° NW
Cosmos 1354 Rocket 4.0 17:40:08 10° SSW 17:45:29 80° ESE 17:50:45 10° NNE
Cosmos 1076 Rocket 3.9 17:42:36 10° NNE 17:46:38 41° E 17:50:44 10° SSE
Cosmos 1606 3.6 17:46:11 10° SSE 17:49:30 27° ESE 17:52:46 10° NE
CZ-4B R/B 1.2 17:46:38 10° NNE 17:49:37 54° ESE 17:52:42 10° S
IRIDIUM 104 4.3 17:45:16 10° S 17:50:34 71° E 17:55:48 10° N
Atlas Centaur 2 3.3 17:46:30 10° WNW 17:50:58 35° N 17:56:31 10° ENE
Cosmos 2151 4.1 17:47:55 10° NE 17:51:20 24° E 17:54:46 10° SE
Meteor PRIRODA 3.8 17:52:36 10° S 17:56:24 79° WSW 18:00:06 10° NNW
IRIDIUM 114 4.4 17:54:24 10° S 17:59:44 87° E 18:04:59 10° N
Cosmos 1437 Rocket 3.1 17:56:27 10° S 18:00:06 40° ESE 18:03:42 10° NNE
ERS-2 3.7 17:58:52 10° ENE 18:01:08 16° ESE 18:03:23 10° SSE
Cosmos 2292 Rocket 4.3 17:58:15 10° NNE 18:02:12 39° E 18:07:24 10° SSE
Cosmos 1356 4.3 17:59:29 10° NNW 18:02:50 52° WSW 18:06:14 10° S
ATLAS CENTAUR Rocket 3.7 18:00:49 10° NW 18:04:03 19° N 18:06:49 10° ENE
Cosmos 1242 Rocket 3.8 18:02:29 10° SSE 18:05:22 21° ESE 18:08:13 10° NE
ATLAS 3B R/B 3.5 17:59:00 10° NW 18:06:23 58° SW 18:13:41 10° SSE
deb Chang Zheng 4 3.5 18:02:22 10° SSE 18:06:47 72° ENE 18:11:07 10° N
Cosmos 2058 3.9 18:03:06 10° NNW 18:07:07 49° W 18:11:13 10° S
Meteor 2-15 4.5 18:01:35 10° S 18:07:46 90° WNW 18:13:49 10° N
Envisat 3.6 18:03:37 10° S 18:08:43 62° WSW 18:13:44 10° NNW
Cosmos 2237 Rocket 2.6 18:06:53 10° NNW 18:12:31 67° WSW 18:18:14 10° SSE
SJ 16-02 2.2 18:10:54 10° S 18:14:46 28° ESE 18:18:37 10° NE
SMAP 3.3 18:10:40 10° SSE 18:15:16 49° E 18:19:48 10° N
Cosmos 1943 Rocket 3.4 18:16:59 10° S 18:21:02 19° SE 18:21:53 19° ESE
NOAA 6 4.0 18:16:25 10° SSE 18:21:38 73° ENE 18:26:45 10° N
H-2A R/B 3.5 18:21:40 21° E 18:21:51 21° E 18:24:52 10° NNE
Cosmos 1689 Rocket 2.5 18:19:43 10° NE 18:22:22 36° ESE 18:25:06 10° S
Cosmos 1553 Rocket 4.0 18:17:28 10° S 18:23:33 59° E 18:29:32 10° NNE
Cosmos 1763 Rocket 4.3 18:21:34 10° NNE 18:26:06 30° E 18:28:30 21° ESE
CZ-2D R/B 4.4 18:35:47 26° ENE 18:35:47 26° ENE 18:38:26 10° NNE
Hubble Space Telescope 3.0 18:33:24 10° NNW 18:35:47 15° NNE 18:37:25 12° NE
Okean O Rocket 2.1 18:34:14 22° SE 18:36:42 39° E 18:40:54 10° NNE
PSLV R/B 4.0 18:33:57 10° S 18:37:44 68° WSW 18:41:26 10° NNW
Cosmos 1417 Rocket 4.5 18:32:24 10° S 18:38:48 67° E 18:45:04 10° NNE
Lacrosse 5 2.1 18:35:09 10° SSW 18:40:09 49° SE 18:42:25 29° ENE
Cosmos 2278 Rocket 3.0 18:34:53 10° SSW 18:40:28 55° WNW 18:45:59 10° N
Cosmos 2369 Rocket 4.0 18:40:33 10° SSE 18:41:48 13° SSE 18:41:48 13° SSE
Cosmos 1777 Rocket 4.5 18:39:07 10° SSW 18:44:23 64° WNW 18:49:33 10° N
MOS 1-B 4.3 18:40:15 10° SSE 18:46:10 83° ENE 18:52:00 10° NNW
BREEZE-M DEB (TANK) 3.7 18:44:34 10° NNW 18:47:15 32° NE 18:47:27 32° NE
Cosmos 1933 3.4 18:43:11 10° S 18:47:17 55° E 18:51:18 10° NNE
Meteor 2-21 Rocket 4.4 18:42:01 10° N 18:48:08 63° E 18:54:21 10° SSE
CZ-2C R/B 3.7 18:44:35 10° N 18:50:02 50° W 18:55:32 10° SSW
CZ-4B R/B 3.1 18:45:04 10° SSE 18:50:24 63° ENE 18:55:40 10° N
Cosmos 468 Rocket 4.0 18:49:48 10° N 18:55:01 59° ENE 18:57:19 32° SE
Okean 3 Rocket 3.6 18:53:31 10° N 18:57:49 54° E 18:57:59 53° E
Meteor 2-3 Rocket 3.7 18:55:24 10° N 19:01:01 86° W 19:06:47 10° S
Cosmos 1655 Rocket 4.0 18:55:25 10° N 19:01:45 88° E 19:08:13 10° S
H-2A R/B 3.7 19:06:48 18° NNE 19:06:48 18° NNE 19:08:15 10° NNE
Cosmos 1766 Rocket 3.5 18:59:25 10° N 19:03:52 65° E 19:04:23 60° ESE
Cosmos 1461 3.6 19:02:46 10° SW 19:07:06 58° WNW 19:11:29 10° NNE
ATLAS CENTAUR R/B 3.1 19:16:47 10° SSW 19:18:32 23° SSW 19:18:32 23° SSW
Cosmos 1939 Rocket 4.1 19:17:53 14° S 19:21:08 42° WSW 19:25:05 10° NW
Lacrosse 5 rocket 3.2 19:21:48 10° NNW 19:24:00 25° N 19:24:00 25° N
Cosmos 883 Rocket 4.3 19:20:50 10° S 19:27:07 82° E 19:33:23 10° N
USA 234 4.3 19:24:15 21° SSE 19:27:51 37° SSW 19:33:46 10° W
SL-16 R/B 3.1 19:22:46 10° NW 19:28:11 45° WSW 19:32:00 19° S
CZ-2C R/B 3.5 19:25:08 18° S 19:28:33 53° WSW 19:33:13 10° NNW
ERS-2 4.0 19:31:05 10° NNW 19:34:21 30° W 19:37:40 10° SW
Atlas Centaur 2 4.1 19:35:12 10° WNW 19:39:38 23° NNW 19:41:59 19° N
Cosmos 2297 4.0 19:40:01 10° SSW 19:45:46 67° WNW 19:46:44 57° NNW
SJ 16-02 3.7 19:49:40 10° SW 19:53:10 23° W 19:56:39 10° NNW
Cosmos 1943 Rocket 3.2 19:59:35 10° SSW 20:03:29 42° SW 20:03:29 42° SW
Cosmos 1607 4.4 20:01:49 10° SW 20:07:09 56° W 20:07:09 56° W
Okean O Rocket 4.1 20:11:42 17° SW 20:12:43 18° WSW 20:15:47 10° WNW
Lacrosse 5 4.0 20:18:41 10° WSW 20:21:42 23° W 20:21:42 23° W
